Cavalier, ND

9:51 AM CDT on August 17, 2017 (GMT -0500)
Cavalier

Weather History for K2C8 - November, 2012

Change the Weather History Date:

Monday, November 26, 2012

  Actual Average (KGAF) Record (KGAF)
Temperature  
Mean Temperature 12 °F -  
Max Temperature 28 °F 28 °F 53 °F (1963)
Min Temperature -2 °F 12 °F -16 °F (1959)
Degree Days  
Heating Degree Days 53    
Moisture  
Dew Point 6 °F    
Average Humidity 80    
Maximum Humidity 93    
Minimum Humidity 67    
Precipitation  
Precipitation 0.00 in - - ()
Sea Level Pressure  
Sea Level Pressure 30.27 in    
Wind  
Wind Speed 8 mph (SW)    
Max Wind Speed 14 mph    
Max Gust Speed 20 mph    
Visibility 9 miles    
Events Snow    
Averages and records for this station are not official NWS values.
T = Trace of Precipitation, MM = Missing Value Source: NWS Daily Summary

Daily Weather History Graph

Daily Weather History Graph

Search for Another Location

Airport or City:

Trip Planner

Search our weather history database for the weather conditions in past years. The results will help you decide how hot, cold, wet, or windy it might be!

Date:

Astronomy

Nov. 26, 2012 Rise Set
Actual Time 7:56 AM CST 4:39 PM CST
Civil Twilight 7:20 AM CST 5:15 PM CST
Nautical Twilight 6:41 AM CST 5:54 PM CST
Astronomical Twilight 6:03 AM CST 6:32 PM CST
Moon 3:36 PM CST (11/26) 6:02 AM CST (11/26)
Length of Visible Light 9h 54m
Length of Day
8h 42m
Waxing Gibbous, 97% of the Moon is Illuminated
Nov 26
Waxing Gibbous
Nov 28
Full
Dec 6
Last Quarter
Dec 13
New
Dec 19
First Quarter

Hourly Weather History & Observations

Time (CST) Temp. Windchill Dew Point Humidity Pressure Visibility Wind Dir Wind Speed Gust Speed Precip Events Conditions
12:15 AM 5.0 °F -8.1 °F -0.4 °F 78% 30.33 in 10.0 mi NW 8.1 mph - N/A   Clear
12:35 AM 5.0 °F -6.9 °F -0.4 °F 78% 30.33 in 10.0 mi NW 6.9 mph - N/A   Scattered Clouds
12:55 AM 3.2 °F -9.1 °F -0.4 °F 85% 30.33 in 10.0 mi NW 6.9 mph - N/A   Scattered Clouds
1:15 AM 1.4 °F -11.3 °F -2.2 °F 85% 30.33 in 10.0 mi NW 6.9 mph - N/A   Mostly Cloudy
1:35 AM 3.2 °F -10.3 °F -2.2 °F 78% 30.34 in 10.0 mi NW 8.1 mph - N/A   Mostly Cloudy
1:55 AM 3.2 °F -10.3 °F -2.2 °F 78% 30.34 in 10.0 mi NW 8.1 mph - N/A   Mostly Cloudy
2:15 AM 3.2 °F -12.2 °F -2.2 °F 78% 30.35 in 10.0 mi NW 10.4 mph - N/A   Mostly Cloudy
2:35 AM 3.2 °F -10.3 °F -2.2 °F 78% 30.35 in 10.0 mi NW 8.1 mph - N/A   Clear
2:55 AM 1.4 °F -13.5 °F -2.2 °F 85% 30.36 in 10.0 mi NW 9.2 mph - N/A   Clear
3:15 AM 3.2 °F -9.1 °F -2.2 °F 78% 30.36 in 10.0 mi NW 6.9 mph - N/A   Clear
3:35 AM 1.4 °F -11.3 °F -2.2 °F 85% 30.37 in 10.0 mi NW 6.9 mph - N/A   Clear
3:55 AM 1.4 °F -12.5 °F -4.0 °F 78% 30.37 in 10.0 mi NW 8.1 mph - N/A   Clear
4:15 AM 1.4 °F -9.9 °F -4.0 °F 78% 30.37 in 10.0 mi WNW 5.8 mph - N/A   Clear
4:35 AM -0.4 °F -12.0 °F -4.0 °F 85% 30.38 in 10.0 mi WNW 5.8 mph - N/A   Clear
4:55 AM -0.4 °F -12.0 °F -4.0 °F 85% 30.38 in 10.0 mi WNW 5.8 mph - N/A   Clear
5:15 AM -0.4 °F -10.4 °F -5.8 °F 78% 30.38 in 10.0 mi West 4.6 mph - N/A   Clear
5:35 AM -0.4 °F -10.4 °F -5.8 °F 78% 30.38 in 10.0 mi WNW 4.6 mph - N/A   Clear
5:55 AM -0.4 °F -10.4 °F -5.8 °F 78% 30.38 in 10.0 mi West 4.6 mph - N/A   Clear
6:15 AM -2.2 °F -12.5 °F -5.8 °F 85% 30.38 in 10.0 mi SW 4.6 mph - N/A   Clear
6:35 AM -0.4 °F -10.4 °F -5.8 °F 78% 30.38 in 10.0 mi WSW 4.6 mph - N/A   Clear
6:55 AM -0.4 °F -12.0 °F -7.6 °F 72% 30.38 in 10.0 mi WSW 5.8 mph - N/A   Clear
7:15 AM -0.4 °F -12.0 °F -5.8 °F 78% 30.38 in 10.0 mi West 5.8 mph - N/A   Clear
7:35 AM -0.4 °F -12.0 °F -7.6 °F 72% 30.39 in 10.0 mi West 5.8 mph - N/A   Clear
7:55 AM -0.4 °F -10.4 °F -5.8 °F 78% 30.37 in 10.0 mi SW 4.6 mph - N/A   Clear
8:15 AM -2.2 °F - -7.6 °F 78% 30.38 in 10.0 mi Calm Calm - N/A   Clear
8:35 AM -0.4 °F -8.3 °F -7.6 °F 72% 30.39 in 10.0 mi SSW 3.5 mph - N/A   Clear
8:55 AM -0.4 °F -10.4 °F -4.0 °F 85% 30.39 in 10.0 mi SSW 4.6 mph - N/A   Partly Cloudy
9:15 AM 1.4 °F -11.3 °F -4.0 °F 78% 30.38 in 10.0 mi SSW 6.9 mph - N/A   Partly Cloudy
9:35 AM 3.2 °F -7.8 °F -2.2 °F 78% 30.38 in 10.0 mi SSW 5.8 mph - N/A   Clear
9:55 AM 3.2 °F -9.1 °F -2.2 °F 78% 30.37 in 10.0 mi SSW 6.9 mph - N/A   Clear
10:15 AM 5.0 °F -8.1 °F -2.2 °F 72% 30.37 in 10.0 mi South 8.1 mph - N/A   Scattered Clouds
10:35 AM 5.0 °F -9.1 °F -2.2 °F 72% 30.37 in 10.0 mi SSW 9.2 mph - N/A   Scattered Clouds
10:55 AM 5.0 °F -9.1 °F -0.4 °F 78% 30.36 in 10.0 mi SSW 9.2 mph - N/A   Scattered Clouds
11:15 AM 6.8 °F -7.8 °F -0.4 °F 72% 30.35 in 10.0 mi South 10.4 mph - N/A   Mostly Cloudy
11:35 AM 8.6 °F -5.5 °F 1.4 °F 73% 30.34 in 10.0 mi SSW 10.4 mph - N/A   Scattered Clouds
11:55 AM 8.6 °F -4.7 °F 1.4 °F 73% 30.33 in 10.0 mi South 9.2 mph - N/A   Scattered Clouds
12:15 PM 8.6 °F -4.7 °F 1.4 °F 73% 30.32 in 10.0 mi SSW 9.2 mph - N/A   Mostly Cloudy
12:35 PM 10.4 °F -4.1 °F 3.2 °F 73% 30.31 in 4.0 mi SSW 11.5 mph - N/A Snow Light Snow
12:55 PM 10.4 °F -3.3 °F 3.2 °F 73% 30.30 in 7.0 mi SSW 10.4 mph - N/A Snow Light Snow
1:15 PM 12.2 °F -1.0 °F 5.0 °F 73% 30.29 in 10.0 mi SSW 10.4 mph - N/A   Overcast
1:35 PM 14.0 °F -0.8 °F 5.0 °F 67% 30.27 in 10.0 mi SSW 13.8 mph - N/A   Overcast
1:55 PM 14.0 °F -0.2 °F 5.0 °F 67% 30.26 in 4.0 mi SSW 12.7 mph 19.6 mph N/A Snow Light Snow
2:15 PM 14.0 °F 0.5 °F 6.8 °F 73% 30.25 in 3.0 mi SSW 11.5 mph - N/A Snow Light Snow
2:35 PM 14.0 °F -0.8 °F 8.6 °F 79% 30.24 in 10.0 mi SSW 13.8 mph - N/A   Overcast
2:55 PM 15.8 °F 2.7 °F 8.6 °F 73% 30.24 in 5.0 mi SSW 11.5 mph - N/A   Haze
3:15 PM 15.8 °F 2.7 °F 8.6 °F 73% 30.23 in 2.5 mi SSW 11.5 mph - N/A Snow Light Snow
3:35 PM 15.8 °F 2.1 °F 10.4 °F 79% 30.23 in 4.0 mi SSW 12.7 mph - N/A Snow Light Snow
3:55 PM 15.8 °F 1.4 °F 10.4 °F 79% 30.21 in 10.0 mi South 13.8 mph - N/A   Overcast
4:15 PM 15.8 °F 2.1 °F 10.4 °F 79% 30.20 in 10.0 mi South 12.7 mph - N/A   Overcast
4:35 PM 15.8 °F 2.7 °F 12.2 °F 86% 30.20 in 10.0 mi South 11.5 mph 17.3 mph N/A   Overcast
4:55 PM 17.6 °F 5.0 °F 12.2 °F 79% 30.19 in 10.0 mi South 11.5 mph - N/A   Overcast
5:15 PM 17.6 °F 6.4 °F 14.0 °F 86% 30.19 in 10.0 mi South 9.2 mph - N/A   Overcast
5:35 PM 17.6 °F 6.4 °F 14.0 °F 86% 30.18 in 10.0 mi South 9.2 mph - N/A   Overcast
5:55 PM 17.6 °F 4.3 °F 14.0 °F 86% 30.17 in 10.0 mi South 12.7 mph - N/A   Overcast
6:15 PM 19.4 °F 8.6 °F 14.0 °F 80% 30.17 in 10.0 mi SSW 9.2 mph - N/A   Overcast
6:35 PM 19.4 °F 7.9 °F 15.8 °F 86% 30.15 in 10.0 mi South 10.4 mph - N/A   Overcast
6:55 PM 19.4 °F 9.5 °F 15.8 °F 86% 30.15 in 10.0 mi South 8.1 mph - N/A   Overcast
7:15 PM 19.4 °F 11.5 °F 15.8 °F 86% 30.14 in 10.0 mi South 5.8 mph - N/A   Overcast
7:35 PM 21.2 °F 14.9 °F 17.6 °F 86% 30.14 in 10.0 mi South 4.6 mph - N/A   Overcast
7:55 PM 23.0 °F 17.0 °F 17.6 °F 80% 30.13 in 10.0 mi South 4.6 mph - N/A   Overcast
8:15 PM 23.0 °F 15.8 °F 17.6 °F 80% 30.13 in 10.0 mi SSW 5.8 mph - N/A   Mostly Cloudy
8:35 PM 23.0 °F 17.0 °F 19.4 °F 86% 30.12 in 10.0 mi SSW 4.6 mph - N/A   Overcast
8:55 PM 24.8 °F 20.5 °F 19.4 °F 80% 30.12 in 10.0 mi SW 3.5 mph - N/A   Overcast
9:15 PM 26.6 °F 21.2 °F 23.0 °F 86% 30.12 in 10.0 mi SW 4.6 mph - N/A   Overcast
9:35 PM 26.6 °F 22.6 °F 23.0 °F 86% 30.11 in 10.0 mi SW 3.5 mph - N/A   Overcast
9:55 PM 26.6 °F 21.2 °F 23.0 °F 86% 30.11 in 10.0 mi SW 4.6 mph - N/A   Overcast
10:15 PM 26.6 °F 20.0 °F 24.8 °F 93% 30.11 in 10.0 mi SSW 5.8 mph - N/A   Overcast
10:35 PM 26.6 °F 19.1 °F 23.0 °F 86% 30.11 in 10.0 mi SW 6.9 mph - N/A   Overcast
10:55 PM 26.6 °F 20.0 °F 24.8 °F 93% 30.11 in 10.0 mi SW 5.8 mph - N/A   Overcast
11:15 PM 26.6 °F 21.2 °F 24.8 °F 93% 30.11 in 10.0 mi SW 4.6 mph - N/A   Overcast
11:35 PM 26.6 °F 21.2 °F 24.8 °F 93% 30.11 in 10.0 mi SW 4.6 mph - N/A   Overcast
11:55 PM 28.4 °F 22.2 °F 24.8 °F 86% 30.11 in 10.0 mi WSW 5.8 mph - N/A   Overcast